WS6A-13 Weather Reports


time (UTC)temp
F
wind
direction
speed
knots
gust
knots
rain 1hr
in
rain 24hr
in
rain mn
in
humidity
%
barometer
mb
20260905073004 71 79 0.0 0.0 0.00 0.00 0.00 93 1010.6
20260905064503 72 79 0.0 0.0 0.00 0.00 0.00 93 1010.5
20260905063004 72 79 0.0 0.0 0.00 0.00 0.00 93 1010.9
20260905061503 72 79 0.0 0.0 0.00 0.00 0.00 92 1011.0
20260905060004 73 79 0.0 0.0 0.00 0.00 0.00 93 1011.3
20260905053003 73 79 0.0 0.0 0.00 0.00 0.00 93 1011.7
20260905051505 73 79 0.0 0.0 0.00 0.00 0.00 93 1011.8
20260905050004 73 79 0.0 0.0 0.00 0.00 0.00 92 1011.9
20260905044504 73 79 0.0 0.0 0.00 0.00 0.00 92 1012.0
20260905043004 73 79 0.0 0.0 0.00 0.00 0.00 92 1012.0
20260905041504 73 79 0.0 0.0 0.00 0.00 0.00 92 1012.0
20260905040004 73 79 0.0 0.0 0.00 0.00 0.00 91 1012.3
20260905034504 73 79 0.0 0.0 0.00 0.00 0.00 91 1012.3
20260905031504 73 79 0.0 0.0 0.00 0.00 0.00 91 1012.2
20260905030004 73 79 0.0 0.0 0.00 0.00 0.00 90 1012.0
20260905021504 74 79 0.0 0.0 0.00 0.00 0.00 89 1011.9
20260905020004 74 79 0.0 0.0 0.00 0.00 0.00 89 1011.9
20260905014504 74 79 0.0 0.0 0.00 0.00 0.00 89 1011.7
20260905013004 75 79 0.0 0.0 0.00 0.00 0.00 89 1011.6
20260905004504 76 79 0.0 0.0 0.00 0.00 0.00 86 1011.1
20260905003003 77 79 0.0 0.0 0.00 0.00 0.00 85 1011.0
20260905001504 77 79 0.0 0.0 0.00 0.00 0.00 84 1010.7
20260904234504 78 79 0.0 0.0 0.00 0.00 0.00 82 1010.9
20260904233004 79 79 0.0 0.0 0.00 0.00 0.00 82 1011.0
20260904231504 79 79 0.0 0.0 0.00 0.00 0.00 82 1011.0
20260904230005 79 79 0.0 0.0 0.00 0.00 0.00 81 1011.2
20260904224504 79 79 0.0 0.0 0.00 0.00 0.00 80 1011.5
20260904223004 79 82 0.0 0.0 0.00 0.00 0.00 82 1011.7
20260904221505 78 82 0.0 0.9 0.00 0.00 0.00 83 1011.4
20260904214504 76 5 0.0 0.0 0.00 0.00 0.00 87 1011.9
20260904213004 76 5 0.0 0.0 0.00 0.00 0.00 86 1012.1
20260904211504 76 5 0.0 0.0 0.00 0.00 0.00 86 1011.9
20260904210004 77 5 0.0 0.0 0.00 0.00 0.00 84 1012.2
20260904204504 78 0 0.0 7.8 0.00 0.00 0.00 82 1012.2
20260904201504 87 52 6.1 14.8 0.00 0.00 0.00 66 1013.3
20260904200006 95 110 0.9 6.1 0.00 0.00 0.00 58 1011.7
20260904194504 95 74 0.9 4.3 0.00 0.00 0.00 61 1011.6
20260904193004 95 134 0.0 5.2 0.00 0.00 0.00 61 1011.8
20260904191503 95 124 0.0 5.2 0.00 0.00 0.00 61 1011.5
20260904190004 95 93 0.9 5.2 0.00 0.00 0.00 61 1011.7
20260904184504 95 253 0.9 7.0 0.00 0.00 0.00 61 1012.1
20260904180003 94 41 1.7 6.1 0.00 0.00 0.00 60 1012.7
20260904173004 94 219 0.9 7.0 0.00 0.00 0.00 61 1013.3
20260904170004 93 103 0.9 6.1 0.00 0.00 0.00 63 1013.4
20260904163004 93 58 0.9 5.2 0.00 0.00 0.00 64 1013.5
20260904161504 92 215 0.0 2.6 0.00 0.00 0.00 68 1013.5
20260904160004 91 198 0.9 5.2 0.00 0.00 0.00 68 1013.7
20260904154504 90 111 0.0 5.2 0.00 0.00 0.00 72 1013.7
20260904153004 89 84 0.0 2.6 0.00 0.00 0.00 73 1013.6
20260904151504 88 9 0.9 5.2 0.00 0.00 0.00 72 1013.5
20260904150004 87 50 0.0 4.3 0.00 0.00 0.00 74 1013.5
20260904144504 86 121 0.0 4.3 0.00 0.00 0.00 75 1013.5
20260904143004 84 60 0.0 0.0 0.00 0.00 0.00 79 1013.4
20260904141503 83 59 0.0 0.0 0.00 0.00 0.00 82 1013.4
20260904140004 81 59 0.0 0.9 0.00 0.00 0.00 86 1013.3
20260904134504 79 60 0.0 0.9 0.00 0.00 0.00 90 1013.6
20260904133004 78 49 0.0 0.0 0.00 0.00 0.00 93 1013.5
20260904130004 76 49 0.0 0.0 0.00 0.00 0.00 96 1013.6
20260904124504 76 49 0.0 0.0 0.00 0.00 0.00 96 1013.7
20260904123005 74 49 0.0 0.0 0.00 0.00 0.00 96 1013.6
20260904121504 74 49 0.0 0.0 0.00 0.00 0.00 95 1013.5
20260904120004 73 49 0.0 0.0 0.00 0.00 0.00 95 1013.4
20260904113004 73 49 0.0 0.0 0.00 0.00 0.00 94 1013.1
20260904111504 73 49 0.0 0.0 0.00 0.00 0.00 93 1012.8
20260904110003 73 49 0.0 0.0 0.00 0.00 0.00 93 1012.6
20260904104504 73 49 0.0 0.0 0.00 0.00 0.00 93 1012.2
20260904103004 73 49 0.0 0.0 0.00 0.00 0.00 93 1012.2
20260904101503 73 49 0.0 0.0 0.00 0.00 0.00 93 1012.2
20260904100004 73 49 0.0 0.0 0.00 0.00 0.00 93 1012.4
20260904094503 73 49 0.0 0.0 0.00 0.00 0.00 93 1012.2
20260904093004 73 49 0.0 0.0 0.00 0.00 0.00 93 1012.2
20260904091504 74 49 0.0 0.0 0.00 0.00 0.00 93 1012.2
20260904090004 74 49 0.0 0.0 0.00 0.00 0.00 93 1012.3
20260904084504 74 49 0.0 0.0 0.00 0.00 0.00 92 1012.3
20260904083004 74 49 0.0 0.0 0.00 0.00 0.00 92 1012.3
20260904081504 74 49 0.0 0.0 0.00 0.00 0.00 92 1012.2
20260904080004 74 49 0.0 0.0 0.00 0.00 0.00 92 1012.4
20260904074503 74 49 0.0 0.0 0.00 0.00 0.00 92 1012.4